This is the latest recevied weather packets stored in our database for station/object OE6CBX-1. If no packets are shown the sender has not sent any weather packets the latest 10 day(s).
| Time | Temp. | Humidity | Pressure | Rain* | Wind** | Luminosity | Snow |
|---|---|---|---|---|---|---|---|
| 1777500008 | 8.33° C | 31% | 988.5 hPa | - | - | - | - |
| 1777499108 | 8.33° C | 31% | 988.2 hPa | - | - | - | - |
| 1777498208 | 8.33° C | 33% | 988 hPa | - | - | - | - |
| 1777497308 | 8.33° C | 34% | 987.9 hPa | - | - | - | - |
| 1777496408 | 8.33° C | 37% | 987.7 hPa | - | - | - | - |
| 1777495508 | 8.89° C | 38% | 987.5 hPa | - | - | - | - |
| 1777494608 | 8.89° C | 42% | 987.2 hPa | - | - | - | - |
| 1777493708 | 8.89° C | 44% | 986.9 hPa | - | - | - | - |
| 1777492808 | 8.89° C | 49% | 986.7 hPa | - | - | - | - |
| 1777491908 | 8.89° C | 52% | 986.4 hPa | - | - | - | - |
| 1777491008 | 8.89° C | 53% | 986 hPa | - | - | - | - |
| 1777490108 | 8.89° C | 52% | 985.8 hPa | - | - | - | - |
| 1777489207 | 10° C | 50% | 985.6 hPa | - | - | - | - |
| 1777488308 | 10° C | 48% | 985.2 hPa | - | - | - | - |
| 1777487407 | 10.56° C | 45% | 985 hPa | - | - | - | - |
| 1777486507 | 11.11° C | 44% | 984.7 hPa | - | - | - | - |
| 1777485607 | 11.11° C | 43% | 984.5 hPa | - | - | - | - |
| 1777484707 | 11.67° C | 40% | 984.4 hPa | - | - | - | - |
| 1777483807 | 11.67° C | 39% | 984.3 hPa | - | - | - | - |
| 1777482907 | 12.22° C | 39% | 984 hPa | - | - | - | - |
| 1777482007 | 12.22° C | 39% | 984.1 hPa | - | - | - | - |
| 1777481107 | 12.22° C | 39% | 984.1 hPa | - | - | - | - |
| 1777480207 | 12.22° C | 40% | 984.1 hPa | - | - | - | - |
| 1777479307 | 12.78° C | 41% | 984.1 hPa | - | - | - | - |
| 1777478407 | 12.78° C | 41% | 984.2 hPa | - | - | - | - |
* Rain since midnight (hover to see other rain measurements)
** Current wind speed in m/s (hover to see current wind gust speed)